RH
81 81 81 82 82 82 85 88 87 85 85 86 86 84 83 82 81 79 77 76 75 74 73 71 69 68 66 64 63 61 58 56 54 52 51 50 49 48 47 46 46 45 44 43 40 38 37 36 35 35 35 35
90 91 92 94 95 95 93 90 87 85 83 82 81 80 79 77 75 73 70 68 65 63 60 57 54 52 50 48 46 43 42 39 37 36 34 33 32 32 31 31 30 30 30 30 29 27 27 26 26 26 26 27
96 97 96 95 93 91 87 84 82 80 78 75 74 72 69 66 63 59 56 52 49 46 43 41 39 37 35 33 32 30 28 27 25 24 23 22 22 21 21 21 20 19 19 19 18 17 16 16 15 15 16 16
90 87 84 82 80 78 75 74 71 69 66 63 62 59 56 52 48 44 40 38 35 33 32 31 30 29 28 27 27 26 25 24 24 23 23 22 21 21 21 21 20 19 19 18 18 17 16 16 15 14 14 13
79 76 72 68 65 62 58 54 51 48 46 45 44 42 40 38 36 34 33 32 31 31 30 30 30 29 29 29 29 28 28 28 28 28 28 28 28 28 28 27 27 26 26 25 25 24 24 23 22 22 21 20
70 67 64 60 55 50 46 43 41 39 38 38 38 36 36 36 35 35 34 34 34 34 33 33 33 33 33 32 32 32 32 32 32 32 31 31 31 31 31 31 30 30 30 29 29 29 28 28 28 28 27 27
60 59 57 55 53 50 48 47 46 44 43 43 42 40 39 38 37 36 36 36 35 35 35 35 34 34 34 34 34 33 33 33 32 32 31 30 30 30 29 28 27 27 27 26 26 25 25 25 25 25 24 25
63 63 63 62 60 58 56 54 52 50 48 46 44 42 40 39 38 38 37 37 37 36 36 35 35 34 34 33 32 31 30 29 28 27 25 24 23 22 20 19 18 17 16 15 15 15 14 14 14 14 13 13
64 62 60 58 57 56 54 53 51 48 47 45 45 43 42 41 41 39 38 37 36 35 33 32 30 29 27 25 24 22 21 19 17 15 14 12 11 10 9 8 8 7 6 6 5 5 5 5 4 5 4 4
56 54 52 50 50 50 50 50 49 48 47 46 45 43 42 40 37 34 31 29 26 23 21 20 18 16 14 12 11 9 9 7 6 6 5 4 4 3 3 3 2 2 2 2 2 2 2 2 2 2 2 2
56 55 54 54 54 54 53 52 50 48 45 42 38 34 31 28 24 20 16 15 12 10 8 8 7 6 5 4 3 3 3 2 2 2 2 2 2 2 2 1 2 1 1 1 1 1 1 1 1 1 1 1
62 61 60 59 57 53 48 43 39 35 30 25 21 17 13 11 10 7 5 5 4 3 3 2 2 2 2 2 2 2 1 2 1 1 1 1 1 1 1 1 1 1 1 2 1 1 1 1 2 1 1 1
61 58 53 48 42 36 28 23 19 15 11 8 7 5 4 3 3 2 2 2 2 2 2 2 2 1 2 2 1 2 1 2 1 2 2 2 2 1 2 2 2 2 2 2 2 2 2 2 2 2 2 2
40 34 29 24 20 15 11 8 6 4 3 3 2 2 2 2 2 2 2 2 2 2 2 2 2 2 2 2 2 2 2 2 2 2 2 2 2 2 2 2 2 2 2 2 2 2 2 2 2 2 2 2
20 16 12 10 7 5 4 3 2 2 2 2 2 2 2 2 2 2 2 2 2 2 2 2 2 2 2 2 2 2 2 2 2 2 2 2 2 3 2 3 3 2 3 3 3 3 3 3 3 3 3 3
11 8 6 5 4 3 2 2 2 2 2 2 2 2 2 2 2 2 2 2 2 2 2 2 2 2 2 3 3 3 3 3 3 3 3 3 3 3 3 3 3 3 3 3 3 3 3 3 4 4 4 4
4 4 3 3 2 2 2 2 2 2 2 2 2 2 2 3 2 3 3 3 3 3 3 3 3 3 3 3 4 4 4 4 4 4 4 4 4 4 4 4 4 4 4 4 4 4 4 4 4 5 5 5
2 2 2 2 3 3 3 3 3 3 3 3 3 3 3 3 3 3 3 4 4 4 4 4 4 4 4 5 5 5 5 5 5 5 5 5 5 5 5 5 5 5 5 5 5 5 5 5 5 6 6 6
3 3 3 4 4 4 4 4 4 4 4 4 4 4 4 5 5 5 5 5 5 5 5 5 6 6 6 6 6 7 7 7 7 7 6 6 6 6 6 6 6 6 6 6 6 6 6 6 6 6 6 6
4 5 5 5 5 5 5 5 5 6 6 6 6 6 6 7 7 7 8 8 8 8 8 8 8 8 9 9 9 9 9 9 8 8 8 8 8 8 7 7 7 7 7 7 7 6 6 6 7 7 7 8
5 5 6 6 6 6 7 7 7 7 8 9 9 9 9 9 10 11 11 11 11 11 11 11 10 10 10 11 11 11 11 10 10 10 9 9 9 9 9 8 8 8 8 8 8 8 8 9 9 10 10 11
7 8 8 9 9 9 9 9 10 10 11 13 13 13 13 12 12 12 12 11 11 11 11 11 11 11 12 12 13 12 13 12 12 12 11 11 11 11 10 10 10 9 9 9 10 10 11 12 12 13 14 14
10 11 12 13 13 13 13 13 13 13 13 14 14 14 14 13 13 13 13 13 13 13 14 14 15 16 16 18 18 17 18 17 17 17 17 16 16 16 15 14 14 14 13 13 13 14 14 14 15 15 16 16
14 14 14 14 14 14 15 14 13 13 14 15 16 17 18 18 19 19 19 19 18 19 19 20 20 20 21 22 21 21 21 20 20 21 20 20 20 20 20 19 19 18 18 18 18 18 18 18 18 19 19 19
14 14 15 15 16 16 16 16 17 18 20 21 22 24 25 26 26 24 23 22 21 21 21 22 22 22 22 23 23 23 23 22 23 23 23 23 23 23 24 24 23 23 23 23 24 24 24 24 24 24 24 24
17 19 20 20 21 22 22 23 24 25 25 26 27 28 30 29 27 25 24 23 22 22 23 23 24 23 23 23 24 23 23 22 22 22 22 22 22 22 23 23 23 23 24 25 26 27 27 27 28 29 29 29
25 26 25 25 25 26 26 27 27 27 27 27 29 30 31 30 27 25 23 22 22 22 22 23 23 22 22 21 22 21 20 20 19 19 18 18 18 18 18 18 18 18 19 21 22 23 23 25 26 27 28 29
28 27 26 26 26 27 27 27 28 27 28 29 29 29 30 29 27 25 24 24 24 23 23 23 24 24 23 22 23 22 21 21 21 20 19 18 17 17 17 16 16 15 15 16 17 18 19 21 21 21 23 25
30 28 28 28 28 29 29 30 31 31 33 34 32 32 33 32 31 31 30 30 30 29 29 29 29 29 28 27 27 27 26 26 26 25 24 23 21 20 20 19 18 17 16 16 15 15 17 17 17 17 18 20
29 28 29 29 29 30 31 32 33 35 37 35 32 33 33 33 35 36 36 36 35 35 34 34 34 34 34 33 33 33 34 33 34 33 30 29 27 26 26 24 23 22 20 18 16 17 17 16 15 16 16 16
29 29 29 29 29 30 30 31 33 36 36 33 32 33 33 34 36 36 36 37 37 36 36 36 36 36 37 36 37 38 38 39 41 40 37 36 34 34 34 32 31 30 28 25 23 21 19 18 17 17 17 16
Wind_Speed
34 35 35 36 37 37 37 38 38 39 39 40 40 41 41 41 41 41 41 41 41 41 41 42 42 42 42 43 43 43 44 44 44 44 44 44 44 45 45 46 46 47 47 47 47 47 47 47 47 47 47 47
35 36 37 38 38 38 39 39 40 40 41 41 41 41 41 41 41 41 41 41 42 42 43 43 43 43 44 44 44 44 45 45 45 44 45 45 45 45 46 46 47 47 48 48 48 48 48 48 48 48 48 48
37 37 38 39 39 40 40 40 40 40 40 41 41 41 41 41 41 41 42 42 42 43 43 44 44 44 45 45 45 45 46 46 46 46 46 46 46 46 47 47 47 48 48 49 49 49 49 49 49 50 49 49
39 38 38 39 39 40 40 40 40 40 40 41 41 41 42 42 42 42 43 43 44 44 44 45 45 46 46 46 47 47 47 47 48 48 48 48 48 49 49 49 49 50 50 50 51 51 51 51 51 52 52 52
39 39 38 38 39 39 39 39 40 40 40 41 41 42 42 43 43 44 44 45 45 46 46 47 47 48 48 49 49 49 49 50 50 50 50 51 51 51 51 51 52 52 52 52 53 53 53 54 54 54 54 54
39 39 38 39 39 39 40 40 41 41 42 42 42 43 44 44 45 46 46 47 48 48 49 49 49 50 50 51 51 51 51 52 52 52 52 53 53 53 53 53 53 54 54 54 54 55 55 55 55 56 56 56
38 38 39 39 40 41 41 42 43 43 43 44 44 44 45 46 46 47 48 49 49 50 50 51 51 51 52 52 53 53 53 53 53 54 54 54 54 54 55 55 55 55 55 55 55 56 56 56 56 57 57 57
40 40 41 41 42 43 43 44 44 45 45 46 46 46 46 47 48 48 49 50 50 51 51 52 52 52 53 53 54 54 54 55 55 55 55 55 55 55 56 56 56 56 56 56 56 57 57 57 57 58 58 58
41 42 42 43 43 44 45 45 46 46 46 47 47 47 48 48 49 49 50 50 51 51 52 52 52 53 53 53 54 54 55 55 56 56 56 56 56 56 56 57 57 57 57 57 57 57 57 57 57 58 58 58
42 42 43 44 44 45 46 46 46 47 47 47 48 49 49 49 50 50 50 51 51 52 52 52 53 53 53 54 54 55 55 55 56 56 56 56 56 56 56 56 56 56 56 56 56 56 56 56 56 56 56 57
43 44 45 45 45 46 46 46 47 48 48 48 49 49 50 50 50 50 51 51 51 52 52 53 53 53 53 54 54 54 54 55 55 55 55 55 55 55 55 54 54 54 54 54 54 54 54 54 54 55 55 55
44 45 45 45 46 46 46 47 47 48 48 49 49 49 50 50 50 51 51 51 51 52 52 52 52 52 52 52 53 53 53 53 53 53 53 53 53 53 53 53 53 53 53 53 53 53 54 54 54 54 54 54
45 45 45 46 46 46 46 47 47 48 48 48 48 49 49 50 50 50 50 50 50 50 50 50 50 50 50 50 50 51 51 51 51 51 51 51 52 52 52 53 53 53 53 53 53 53 53 53 53 53 53 53
45 45 45 46 46 46 47 47 47 47 47 47 47 47 47 48 48 48 48 48 47 47 47 48 48 48 48 49 49 50 50 50 51 51 51 52 52 52 53 53 53 53 53 53 53 53 53 52 52 52 52 52
45 45 46 46 46 46 47 46 46 45 45 45 45 45 44 45 45 45 45 45 46 46 46 47 48 48 49 49 49 50 50 51 51 51 51 52 52 52 52 52 53 53 53 53 53 53 53 52 52 51 51 51
45 45 46 45 45 44 44 43 43 43 43 43 43 43 43 43 44 44 45 45 46 47 47 48 49 49 49 49 50 50 50 50 51 51 51 51 51 52 52 52 52 52 52 52 52 52 52 52 52 51 51 51
43 43 43 42 42 41 41 41 41 42 42 42 43 43 43 43 44 45 46 46 47 48 49 49 49 49 49 49 49 49 50 50 50 50 51 51 52 52 52 53 53 53 53 53 52 52 52 52 52 52 52 52
40 40 40 40 40 40 41 41 41 42 42 43 43 44 44 44 45 46 46 47 47 48 49 49 49 49 49 49 49 49 50 50 51 51 52 52 53 53 54 54 54 54 53 53 53 53 53 53 53 53 53 54
39 39 39 39 40 40 41 41 41 42 42 43 43 44 44 44 45 45 46 46 47 48 49 49 49 49 49 50 50 51 52 52 53 53 54 54 54 55 55 55 55 54 54 54 54 54 54 55 55 56 56 57
38 38 39 39 40 40 41 41 41 41 41 42 43 43 44 45 45 45 46 47 48 49 49 50 50 51 51 52 52 53 53 54 54 55 55 55 55 55 55 55 55 55 55 55 56 56 57 57 58 59 60 60
38 39 39 40 40 41 41 41 41 41 41 42 43 44 46 46 46 47 48 49 49 50 51 51 52 52 52 52 53 53 53 54 54 54 54 54 54 54 55 55 55 56 57 57 58 59 60 60 61 62 62 63
39 39 39 40 40 41 41 41 42 42 42 43 45 46 47 47 48 48 49 49 50 50 51 51 51 52 52 52 52 53 53 53 53 54 54 54 55 55 56 56 57 58 59 60 61 62 62 63 63 64 64 64
40 40 40 41 41 42 42 42 43 43 43 44 45 46 47 47 47 48 49 49 50 51 51 52 52 52 52 52 53 53 53 54 54 54 54 55 55 56 57 58 59 60 61 62 63 63 64 64 65 65 65 66
40 40 41 41 41 41 41 42 42 43 43 43 44 45 46 46 47 48 49 50 50 51 51 52 51 51 51 51 52 52 52 53 53 53 53 54 54 55 56 57 58 59 60 61 62 63 63 64 64 64 65 65
39 39 39 39 40 40 41 41 41 41 42 42 43 44 45 45 46 48 49 49 49 49 49 49 49 49 49 49 49 50 50 50 50 50 51 51 52 53 53 54 56 57 58 59 60 60 61 61 62 62 63 63
36 36 37 38 38 39 39 39 39 40 40 41 42 42 43 44 46 46 47 47 46 46 46 46 46 47 46 46 47 47 47 48 48 48 49 49 50 51 52 53 54 55 56 57 58 59 60 60 61 61 62 63
34 35 36 36 36 36 36 37 37 38 39 39 39 40 41 43 44 44 44 44 44 43 44 44 45 45 45 45 46 47 47 47 48 48 49 49 49 50 51 52 53 54 55 56 57 58 59 60 60 61 62 63
33 34 34 34 34 35 35 35 36 36 36 37 37 39 40 42 43 43 43 43 43 44 44 45 46 46 46 47 47 48 48 49 49 50 50 51 51 52 52 53 53 54 55 56 57 58 58 59 60 61 62 63
33 34 34 34 34 35 35 35 36 37 37 38 39 41 42 43 44 44 44 45 46 46 47 48 48 49 49 49 50 50 50 51 52 52 53 54 54 54 54 55 55 55 56 57 58 58 59 59 60 61 61 62
35 35 35 36 36 37 38 38 38 38 39 41 42 43 44 44 45 45 46 47 48 49 50 50 51 52 52 53 53 53 53 53 54 55 56 57 57 57 57 57 57 57 59 59 59 59 60 61 61 61 62 62
37 37 37 38 38 39 40 39 39 40 41 43 44 45 45 45 46 46 47 48 49 50 51 52 53 54 54 55 55 55 55 56 57 58 59 59 59 59 60 60 59 60 61 61 61 61 62 62 62 63 63 64
Wind_Direction
262 262 262 262 260 259 260 262 263 264 264 263 263 264 264 264 264 264 265 264 264 265 265 265 266 266 266 266 266 266 266 265 265 265 264 264 264 263 264 264 264 264 264 264 264 264 264 263 263 262 262 262
262 260 259 259 258 258 260 262 263 263 264 264 264 264 265 265 265 265 265 265 265 266 266 267 267 267 268 268 268 268 268 268 267 267 266 266 265 265 265 265 265 265 265 265 265 265 265 265 264 264 263 263
257 257 257 257 258 259 261 262 262 263 263 264 264 264 265 266 266 267 267 267 267 267 268 268 268 268 269 269 269 269 269 269 269 269 268 268 267 267 267 267 266 266 266 266 266 266 266 266 266 265 265 264
256 257 258 258 259 260 261 262 263 263 263 264 265 265 266 267 267 268 268 268 268 269 269 269 269 270 270 270 270 270 270 270 270 270 270 270 269 269 269 268 268 268 268 268 267 267 267 267 267 267 267 266
258 258 258 259 260 261 262 263 263 264 264 265 265 266 267 267 268 269 269 269 270 270 270 270 271 271 271 271 271 271 271 271 271 271 271 271 271 271 270 270 270 269 269 269 269 269 268 268 268 268 267 267
260 260 261 261 262 262 263 264 264 264 265 265 266 266 267 267 268 269 269 270 270 270 271 271 271 272 272 272 272 272 272 272 272 272 272 271 271 271 271 271 270 270 270 269 269 269 269 269 269 268 268 268
261 262 262 262 263 263 264 264 265 265 266 266 266 267 268 268 268 269 269 270 270 270 271 271 271 272 272 272 272 272 272 272 272 272 271 271 271 271 270 270 270 270 269 269 269 269 269 268 268 268 268 268
262 263 264 264 265 265 265 266 266 267 267 268 268 268 268 269 269 269 269 269 270 270 270 270 270 271 271 271 271 272 272 272 272 271 271 271 271 271 270 270 270 269 269 269 269 268 268 268 268 268 267 267
263 264 265 265 265 266 266 267 268 268 268 269 269 269 269 269 269 268 268 269 269 269 269 269 269 269 270 270 270 270 271 271 271 271 271 271 271 271 270 270 270 270 269 269 269 269 268 268 268 268 267 267
263 264 264 265 265 266 266 267 268 268 268 269 269 269 269 268 268 269 268 268 268 268 269 269 269 269 269 269 269 269 270 270 270 270 270 270 270 270 270 270 270 270 269 269 269 269 269 269 268 268 268 268
264 264 265 265 266 266 266 267 267 268 268 268 268 269 269 269 269 269 269 269 269 269 269 269 269 269 269 269 269 269 269 269 269 269 269 269 269 270 270 270 269 269 269 269 269 269 269 269 269 268 268 268
266 266 266 266 266 267 267 267 267 267 268 268 268 269 269 269 269 269 269 269 269 269 269 269 269 268 268 268 268 268 268 268 268 268 268 269 269 269 269 270 270 270 269 269 269 268 268 268 268 267 267 267
268 268 268 267 267 268 268 268 268 268 268 269 269 269 269 270 269 269 269 269 269 269 269 268 268 268 268 268 268 268 268 268 268 269 269 269 269 269 269 269 269 269 269 268 268 267 267 266 266 266 265 265
269 269 268 268 268 269 268 268 269 269 270 270 270 270 270 270 270 270 269 269 269 269 269 269 269 269 268 269 269 269 269 269 269 269 269 269 269 269 269 268 268 268 267 267 267 266 266 265 265 264 264 264
268 268 269 269 269 269 269 270 270 271 271 271 271 271 271 271 270 270 270 269 269 269 269 269 269 269 269 269 269 269 269 269 269 269 269 269 269 268 268 267 267 267 266 266 266 265 265 265 265 264 264 263
268 268 269 269 270 270 271 271 271 271 271 271 271 271 271 271 271 271 270 270 270 270 270 270 270 270 270 270 270 270 270 270 270 269 269 269 268 268 267 267 266 266 266 265 265 265 265 264 264 264 264 264
267 268 268 269 270 271 272 272 272 271 271 271 271 271 270 271 271 270 270 271 271 271 271 271 271 271 271 271 271 270 270 270 270 269 269 269 268 268 267 267 266 266 266 265 265 264 265 265 265 265 265 265
267 268 269 270 270 271 271 271 271 271 271 271 271 271 271 271 271 271 271 271 271 271 271 271 272 272 272 271 271 271 271 270 270 270 269 269 269 269 268 267 267 266 265 265 265 265 265 266 266 266 267 267
268 269 270 270 270 269 269 269 269 269 270 270 270 270 270 270 270 271 271 272 271 272 272 272 272 272 272 272 272 272 272 271 271 271 271 270 270 270 269 268 267 266 266 266 266 266 266 267 267 267 268 268
269 269 269 269 268 268 268 268 268 268 269 270 270 271 271 271 272 272 272 272 272 272 273 273 273 273 273 273 273 273 273 272 272 272 272 271 271 270 270 269 268 267 267 267 267 267 268 268 269 269 269 270
267 267 267 267 268 268 268 268 268 269 270 271 272 272 272 273 273 273 273 273 273 273 273 273 273 274 274 274 274 274 274 273 273 273 272 272 272 271 270 270 270 269 269 270 270 270 270 270 271 271 271 271
267 267 268 268 268 268 269 269 270 271 271 272 272 273 273 274 274 274 274 274 275 275 275 275 275 275 275 275 275 275 275 274 274 274 273 273 273 272 272 272 272 272 272 272 272 272 272 272 272 272 272 272
269 269 270 269 270 270 271 271 271 271 272 272 273 274 275 275 275 275 276 276 276 276 276 276 276 276 276 276 276 276 275 275 275 275 274 274 274 274 274 274 274 274 274 274 274 274 274 274 274 274 274 273
270 270 270 271 271 272 272 271 272 273 273 274 274 275 276 276 276 276 276 276 276 276 277 277 277 277 277 277 277 276 276 276 276 276 275 275 276 276 275 275 275 275 275 275 275 275 275 275 275 275 275 274
271 271 272 272 271 271 272 273 274 275 275 275 275 276 277 277 277 277 276 276 277 277 278 278 278 278 278 278 277 277 277 277 277 277 277 277 277 277 277 277 276 276 276 276 276 276 276 276 276 276 275 275
272 272 271 271 271 272 274 275 275 275 275 276 276 277 277 277 276 276 276 277 278 278 279 279 279 278 278 278 279 278 279 279 279 279 279 279 278 278 278 278 278 278 278 278 278 278 277 277 277 276 276 275
272 271 271 272 274 275 275 275 276 276 276 276 277 277 276 275 275 276 277 278 279 279 279 279 279 279 279 280 280 280 280 281 281 281 281 280 280 280 280 279 279 280 280 279 279 278 278 278 277 277 276 275
273 273 273 275 276 276 276 277 276 276 277 277 277 276 275 275 276 277 278 279 280 280 280 280 280 280 280 280 280 281 281 281 281 282 282 281 281 281 281 281 281 281 281 280 279 279 279 279 278 278 277 277
276 275 276 276 276 277 277 277 276 277 278 277 276 275 275 276 277 279 280 280 280 280 281 281 280 280 281 281 281 281 281 281 282 282 281 281 281 281 282 282 282 282 281 281 281 281 280 280 279 279 278 278
278 278 278 277 277 277 276 276 277 278 277 276 276 276 276 277 279 279 280 280 281 281 281 281 281 281 281 281 281 281 281 281 281 281 281 281 281 282 282 282 282 282 281 282 282 281 281 281 280 280 279 279
280 280 279 279 278 277 277 277 278 277 276 276 277 277 278 279 280 280 280 281 281 281 281 281 281 281 281 282 282 281 281 281 281 281 281 282 282 282 282 282 282 282 282 283 282 281 281 281 281 280 280 279